ROMMA est une association bénévole à but non lucratif. Votre soutien est indispensable : ADHERER à ROMMA ou FAIRE un DON

Grimentz - (CH, Suisse)

Alpes Valaisannes (1710 m)   Longitude: 07° 34' E   Latitude: 46° 11' N Station partenaire n°125
 

Détail journalier du     <<     >>

Température Precipitation Humidité Vent Dir Rafale Dir. rafale Ensol.
Heure (°C) (mm) (%) (km/h) (km/h) (min)
01:00 1.80941NO5ONO0
02:00 1.60.2941NO5NO0
03:00 1.10942NO6ONO0
04:00 1.10933NO8NO0
05:00 0.40924NO8NO0
06:00 -0.10914ONO6ONO0
07:00 0.20914NO10O0
08:00 0.20904NO10ONO0
09:00 0.60894ONO6ONO0
10:00 4.80822ONO8ENE35
11:00 6.70601---6ENE60
12:00 8.50522SSE6SSE60
13:00 10.00473SE10SSO60
14:00 10.40523ESE6SE60
15:00 9.80663E10E60
16:00 9.80641E10ESE60
17:00 6.807705S15
18:00 7.30672---8NO0
19:00 7.20624O13NO0
20:00 6.60635O11O0
21:00 5.50702NO6ONO0
22:00 6.00693ONO8NO0
23:00 6.40664ONO10ONO0
minuit 5.90673ONO8ONO0

Graphique du 16-10-2019

 

Serveur OMMA